Home > Weather > Springfield > Past weeks

Flag for USA Past Weather in Springfield, Missouri, USA — Yesterday and Last 2 Weeks

Now
70 °F

Clear.


Feels Like: 67 °F
Forecast: 68 / 87 °F
Wind: No wind

Location: Springfield Regional Airport

Current Time: Jul 30, 2016 at 4:26:43 AM

Latest Report: Jul 30, 2016 at 3:52 AM


Visibility: 9 mi

Pressure: 29.94 "Hg

Humidity: 90%

Dew Point: 67 °F

Location of SpringfieldLocation

Past Weather in Springfield — Graph

°F

Springfield Temperature Yesterday

Maximum temperature yesterday: 87 °F (at 3:52 PM)
Minimum temperature yesterday: 71 °F (at 4:52 AM)
Average temperature yesterday: 78 °F

High & Low Weather Summary for the Past Weeks

 TemperatureHumidityPressure
High97 °F (Jul 23, 1:52 PM)94% (Jul 27, 5:52 AM)30.21 "Hg (Jul 27, 5:52 AM)
Low64 °F (Jul 15, 3:52 AM)36% (Jul 23, 4:52 PM)29.85 "Hg (Jul 23, 5:52 PM)
Average82 °F72%30.01 "Hg
* Reported Jul 15 2:52 AM — Jul 30 2:52 AM, Springfield, Weather by CustomWeather, © 2016

Note: Actual official high and low records may vary slightly from our data, if they occured in-between our weather recording intervals... More about our weather records

Advertising

Springfield Weather History for the Previous 24 Hours

Scroll right to see more
 ConditionsComfort  
Time TempWeatherWind HumidityBarometerVisibility
2:52 AM
Sat, Jul 30
71 °FClear.No wind87%29.94 "Hg10 mi
1:52 AM71 °FClear.No wind87%29.96 "Hg10 mi
12:52 AM72 °FPassing clouds.No wind87%29.97 "Hg10 mi
11:52 PM
Fri, Jul 29
73 °FClear.No wind84%29.96 "Hg10 mi
10:52 PM76 °FClear.3 mph80%29.96 "Hg10 mi
9:52 PM74 °FClear.3 mph85%29.95 "Hg10 mi
8:52 PM77 °FSunny.6 mph77%29.93 "Hg10 mi
7:52 PM80 °FSunny.7 mph67%29.91 "Hg10 mi
6:52 PM83 °FSunny.10 mph59%29.91 "Hg10 mi
5:52 PM84 °FSunny.14 mph57%29.92 "Hg10 mi
4:52 PM86 °FSunny.13 mph53%29.92 "Hg10 mi
3:52 PM87 °FScattered clouds.8 mph46%29.92 "Hg10 mi
2:52 PM86 °FSunny.3 mph55%29.92 "Hg10 mi
1:52 PM82 °FSunny.7 mph67%29.94 "Hg10 mi
12:52 PM81 °FPassing clouds.12 mph77%29.94 "Hg10 mi
11:52 AM81 °FPartly sunny.8 mph74%29.96 "Hg10 mi
10:52 AM81 °FSunny.7 mph72%29.95 "Hg10 mi
9:52 AM81 °FScattered clouds.6 mph74%29.94 "Hg10 mi
8:52 AM78 °FPassing clouds.3 mph82%29.95 "Hg10 mi
7:52 AM75 °FPassing clouds.3 mph85%29.95 "Hg10 mi
6:52 AM71 °FPassing clouds.No wind90%29.95 "Hg10 mi
5:52 AM71 °FClear.No wind90%29.91 "Hg10 mi
4:52 AM71 °FClear.6 mph90%29.87 "Hg10 mi
Weather by CustomWeather, © 2016

See weather overviewHow to use our weather pages